Dewpoint
66 65 64 64 64 64 63 62 63 63 65 65 65 64 63 62 61 60 60 58 58 59 59 61 65 64 63 62 62 62 62 64 64 63 64 64 63 65 67 67 66 66 65 63 63 62 62 62 62 61 61 61 60 60 60 60 60 60 60 60 60 60 60 60 59 59 59 59 59 59 59 59 59 59 59 59 59 59 60 59 58 58 57 57 58
66 64 63 64 64 65 65 64 63 63 65 64 65 65 62 61 61 61 57 58 57 58 60 61 61 62 61 62 64 64 64 63 63 62 64 65 64 66 67 67 67 66 65 64 63 63 62 62 61 61 61 60 61 60 61 61 61 61 59 59 59 59 60 60 60 60 60 59 59 59 60 59 59 59 59 59 59 58 58 59 59 58 57 57 57
65 64 64 64 65 66 66 65 63 64 65 65 66 65 64 63 64 61 61 59 59 59 59 60 61 60 63 60 65 65 63 65 63 62 62 64 64 64 65 67 66 66 66 66 64 63 63 62 62 62 62 62 62 62 61 60 60 60 60 60 60 60 60 59 59 60 60 60 59 59 59 59 60 60 59 59 59 59 59 59 59 59 58 58 57
66 66 66 66 66 66 66 66 64 64 65 65 65 65 64 63 64 64 65 63 62 62 63 61 61 59 61 61 64 65 63 64 63 63 62 64 66 64 65 65 67 66 66 66 65 64 63 63 62 62 61 62 62 62 63 62 62 60 60 61 60 59 59 60 60 59 59 58 59 59 59 59 59 59 60 60 60 59 59 59 59 59 58 58 58
68 67 64 65 66 67 65 66 65 64 64 65 65 66 65 64 64 64 64 65 64 65 61 64 62 62 62 64 64 63 64 64 64 64 63 61 64 64 64 63 64 67 67 65 65 64 64 63 62 61 61 61 63 63 63 63 63 61 61 60 60 60 60 60 60 60 60 60 60 59 59 59 59 59 59 59 59 59 59 58 59 58 58 58 58
67 67 65 66 67 67 66 65 65 66 65 65 64 64 64 64 62 63 63 63 64 64 63 62 61 63 65 65 65 65 64 61 62 63 64 63 63 65 66 62 63 63 63 66 65 65 66 63 62 62 62 63 63 63 64 63 63 63 62 61 61 61 61 61 60 60 60 60 60 60 60 59 58 58 58 59 59 59 59 58 58 58 58 58 58
68 68 66 66 66 66 66 64 66 66 65 65 64 65 64 63 61 63 63 63 63 62 61 64 65 65 66 66 65 65 65 66 65 63 62 65 65 63 63 61 61 62 60 61 67 67 67 66 66 63 62 64 65 65 64 64 64 64 63 63 62 62 61 61 61 61 60 60 61 61 61 60 59 59 58 58 58 58 58 58 58 59 58 58 58
68 68 67 66 65 65 65 67 67 66 65 65 65 64 64 63 63 64 62 62 63 63 64 64 64 65 66 66 66 66 65 65 65 65 64 65 64 65 64 64 63 62 62 62 63 65 66 66 65 65 65 65 65 65 65 64 64 64 64 64 63 63 62 61 61 61 61 61 61 61 61 61 60 59 59 59 59 58 58 58 58 57 58 58 58
68 68 68 66 64 66 66 67 67 66 65 65 64 63 64 63 64 63 63 61 63 63 64 64 64 65 65 66 65 65 64 65 63 64 65 65 65 66 65 64 64 63 67 66 65 64 65 65 65 66 66 66 65 64 64 64 64 64 64 64 64 64 63 63 62 62 62 62 61 61 61 61 61 61 60 60 59 58 59 59 58 58 58 58 58
68 67 68 66 66 66 67 68 67 67 66 65 64 64 64 64 63 64 63 63 62 62 63 63 64 64 64 65 65 65 64 64 64 64 63 63 65 68 68 67 65 65 65 66 65 65 64 65 66 65 65 65 65 65 65 65 65 64 65 65 64 65 64 64 64 63 63 63 62 62 62 62 62 62 62 61 61 60 59 59 59 58 58 58 58
68 68 68 66 66 67 68 68 68 67 67 65 65 66 66 66 65 64 65 64 62 64 63 63 63 63 63 64 64 64 64 64 64 63 63 65 66 65 66 66 66 66 64 65 66 65 66 65 65 65 65 64 64 64 65 65 65 64 64 64 64 64 64 64 64 64 64 64 64 64 64 63 62 62 63 63 63 63 62 61 60 60 59 59 58
67 68 68 67 66 67 68 68 67 66 66 65 64 64 65 65 65 63 64 63 63 64 64 63 63 63 63 64 63 64 64 63 63 63 64 66 67 68 66 65 65 65 65 65 66 65 65 65 66 63 62 62 64 63 64 65 65 64 63 64 64 65 64 64 64 64 64 64 64 64 64 63 63 63 64 63 63 63 63 63 61 61 61 59 59
67 68 68 67 67 67 67 66 65 64 65 65 64 64 65 65 64 64 63 63 63 64 64 63 62 61 63 63 63 64 64 64 64 64 64 67 68 66 66 65 63 63 64 65 64 63 64 65 64 63 61 60 61 63 64 65 66 65 64 64 64 64 64 64 65 64 64 64 63 64 63 63 63 63 63 63 63 63 63 63 63 62 61 61 60
67 68 68 67 67 66 67 66 65 64 64 64 64 64 65 64 64 63 64 62 63 63 63 62 60 61 59 60 61 62 64 63 63 63 63 64 65 66 67 65 64 64 64 62 63 63 63 63 63 62 60 60 61 63 64 63 64 65 64 64 64 64 64 64 64 64 64 64 65 64 64 63 63 63 63 63 63 63 63 63 63 63 63 62 62
65 64 65 64 64 64 64 66 66 64 64 63 63 64 66 65 64 63 62 62 62 64 64 63 58 60 60 58 57 57 61 61 62 62 62 62 63 64 63 64 63 64 64 63 61 62 62 62 63 63 60 60 60 59 59 63 65 65 65 64 64 65 65 65 64 64 65 64 63 63 63 63 62 63 63 64 64 64 63 63 63 63 63 63 63
62 62 63 64 65 64 66 66 65 66 64 63 64 64 66 65 64 64 63 61 60 61 65 64 61 59 56 55 57 56 54 56 59 61 62 62 62 62 62 62 63 63 64 66 61 61 61 60 60 61 62 60 60 59 60 62 63 64 64 64 64 64 65 64 64 64 64 63 62 62 62 62 62 62 62 62 62 63 63 63 63 63 63 63 62
63 63 62 64 65 67 66 66 65 66 65 63 63 63 64 64 64 64 63 61 60 62 63 64 63 65 62 56 55 55 55 57 58 59 63 60 60 59 61 62 62 63 64 62 62 62 61 61 61 60 60 61 61 62 62 61 62 63 62 62 63 63 62 62 62 63 62 61 61 61 60 60 60 60 60 61 61 62 62 62 62 62 62 63 64
64 64 63 63 64 65 65 65 67 66 64 64 62 61 64 63 64 64 63 64 62 61 60 63 64 64 65 63 63 57 57 57 56 54 60 61 60 60 61 63 62 61 61 61 60 58 58 59 60 59 59 59 60 60 61 61 61 61 61 58 57 59 62 61 60 59 59 58 57 58 58 58 58 58 59 59 60 60 61 61 61 61 62 62 63
64 63 63 63 64 64 64 63 62 62 63 63 62 61 60 61 62 62 61 62 63 61 62 61 63 64 63 64 64 61 64 57 59 58 55 58 59 61 62 62 62 61 59 59 58 57 57 56 57 57 58 58 58 59 60 59 57 57 57 57 56 54 54 57 59 58 57 56 55 55 55 57 56 56 57 58 59 59 59 60 60 61 60 60 61
63 62 63 63 63 63 63 63 62 61 61 61 61 61 61 61 64 64 63 62 63 60 60 61 59 60 63 62 63 62 61 61 61 55 54 55 56 59 60 61 60 60 58 58 59 59 58 57 55 55 55 53 55 55 56 56 57 57 56 55 55 54 53 53 53 54 55 55 54 54 53 53 54 54 55 56 58 59 59 59 59 59 58 58 57
62 63 63 63 63 63 63 63 63 62 61 60 61 61 63 64 64 64 64 63 63 61 61 60 60 59 62 62 60 58 59 59 58 59 53 56 54 57 57 59 59 59 60 58 58 57 55 52 50 50 52 52 50 50 51 54 54 54 53 54 54 54 54 53 51 51 52 56 54 53 53 53 53 53 54 55 56 58 58 58 57 56 56 56 56
61 61 61 61 62 63 62 62 63 62 61 61 62 63 64 64 65 65 64 64 63 62 61 60 60 61 60 60 58 58 58 58 58 60 56 55 53 54 57 56 54 56 58 56 56 54 52 51 50 44 46 46 46 44 46 47 48 47 52 53 54 53 54 53 50 52 53 53 55 53 53 52 52 52 52 53 55 57 58 56 56 55 55 54 55
62 62 62 60 62 62 62 62 63 63 61 62 63 62 64 65 65 65 64 64 62 62 61 62 61 61 61 59 58 58 59 56 60 59 58 55 54 55 55 52 52 53 54 53 53 49 47 49 47 46 46 45 43 40 41 42 47 49 51 52 53 53 54 51 50 51 52 55 55 53 52 52 52 52 52 51 53 56 59 59 57 55 54 54 53
62 61 62 62 62 62 62 62 61 63 62 62 62 64 65 64 64 64 63 63 63 62 62 61 62 61 62 60 62 63 61 59 59 61 59 60 56 54 52 50 49 48 49 52 47 45 43 42 41 43 42 40 40 38 36 37 44 52 50 51 51 51 52 52 50 49 49 52 53 53 52 52 51 51 52 52 52 54 56 57 57 57 57 55 54
59 60 62 62 61 62 62 60 60 62 61 60 62 62 64 64 64 64 63 62 62 62 61 62 62 60 59 61 64 63 61 60 61 61 62 59 59 52 50 49 48 45 44 45 43 41 41 39 36 35 33 34 31 33 33 37 40 47 48 48 50 50 50 51 51 49 48 47 50 53 54 51 51 50 51 51 52 52 52 51 50 49 51 53 55
59 60 60 60 60 60 61 61 61 62 62 61 60 61 64 64 63 63 63 62 62 63 62 63 63 62 62 60 61 63 61 61 60 61 60 59 56 53 52 51 49 41 39 38 39 37 38 35 34 32 29 30 36 39 41 38 42 51 47 45 48 47 47 47 49 49 46 45 46 48 50 50 50 49 50 49 49 49 49 49 49 49 49 49 51
57 59 59 60 60 61 60 61 61 62 61 60 60 61 61 60 62 63 62 63 63 63 62 62 62 61 62 61 61 60 60 59 60 60 60 61 60 55 53 51 48 44 40 34 33 35 34 34 31 29 32 39 41 42 39 41 44 48 47 44 45 48 47 48 48 48 48 45 45 45 46 47 47 48 48 48 49 49 49 49 49 48 49 50 51
59 60 60 60 59 60 60 60 60 60 60 59 59 58 61 62 63 64 63 61 64 63 63 64 64 63 63 62 62 62 61 60 59 58 60 58 57 55 55 53 48 43 42 37 36 34 32 31 29 29 31 36 40 44 44 39 39 46 51 43 43 45 46 46 47 49 47 47 46 46 46 46 47 48 49 50 48 48 48 48 49 49 49 50 50
59 60 60 59 59 60 59 59 60 59 59 59 58 58 60 63 63 64 64 63 64 62 64 63 64 64 62 62 61 60 61 62 60 59 59 59 58 56 55 52 50 46 42 38 40 35 31 29 27 27 29 34 42 42 39 37 41 46 43 44 45 45 47 46 46 46 46 46 46 46 46 47 48 49 47 47 47 46 47 48 48 49 50 49 49
59 59 59 59 59 58 59 59 59 59 59 58 57 58 60 59 61 62 62 63 63 63 63 62 63 63 62 61 60 59 60 61 59 61 61 60 59 60 59 55 49 46 45 41 41 38 33 33 31 25 29 34 38 41 41 39 45 42 41 43 45 44 46 46 44 44 45 45 46 45 45 47 47 49 48 48 48 46 47 46 47 48 48 48 48
57 58 58 58 58 57 58 58 58 58 58 58 58 59 58 57 59 58 61 61 60 61 62 62 62 63 62 61 61 60 62 62 61 61 61 60 58 62 62 57 49 49 46 42 39 39 38 38 31 30 30 34 35 41 40 38 41 42 44 46 41 44 45 43 45 45 46 46 44 44 47 46 47 48 47 48 47 47 47 45 44 47 46 48 48
58 57 57 57 57 56 55 57 57 57 56 56 58 58 58 58 57 57 59 59 59 59 58 60 57 60 62 61 61 60 61 59 60 60 59 60 59 55 56 54 48 51 47 42 40 41 40 39 36 32 34 39 36 38 42 36 36 48 43 43 39 43 37 39 45 46 47 45 46 46 49 48 46 46 47 46 47 46 46 46 46 45 48 48 48
58 57 56 56 55 56 55 55 54 55 55 56 58 58 57 57 56 55 55 55 54 54 55 58 56 59 59 60 60 61 61 60 58 58 57 57 58 57 55 50 47 49 48 42 39 43 47 45 42 33 36 39 36 38 39 43 41 41 44 44 41 41 41 43 40 45 46 46 46 46 45 45 45 46 44 43 43 44 46 46 46 48 46 45 46
58 55 55 56 55 54 52 53 54 53 52 52 56 57 55 56 56 55 54 53 53 53 55 53 55 57 61 60 59 61 59 58 58 53 53 54 53 52 50 49 42 46 48 39 37 41 47 48 41 38 37 40 37 38 42 45 43 41 40 44 44 43 43 45 43 43 45 47 46 45 45 45 45 45 43 44 44 44 45 45 44 44 46 43 44
58 55 55 55 54 53 52 54 53 52 50 50 54 55 56 55 54 55 55 53 53 54 54 53 51 54 57 60 60 61 61 60 58 54 55 53 49 47 48 46 44 44 42 41 42 41 43 42 45 40 42 41 42 37 38 43 44 41 40 42 42 41 42 46 43 42 44 45 44 45 45 45 45 44 44 44 44 44 44 44 43 43 43 43 43
55 56 55 54 53 52 52 52 52 51 49 49 51 51 52 53 53 54 52 53 52 52 51 49 48 53 56 59 61 62 62 60 56 54 54 52 50 47 47 48 48 44 46 47 45 44 43 41 43 37 40 42 41 39 37 41 43 42 41 40 41 40 40 40 42 41 42 45 45 45 45 45 44 44 43 44 44 44 44 44 44 43 43 43 43
54 54 54 53 52 50 52 50 49 49 48 47 49 51 53 54 53 54 52 51 52 51 51 50 54 52 55 59 60 61 61 60 58 55 52 53 47 47 47 46 45 47 48 46 44 44 44 44 44 41 41 40 38 42 38 37 40 41 39 39 39 39 42 42 39 40 45 45 44 44 44 44 43 43 43 44 44 43 43 44 44 44 44 44 44
52 52 50 49 47 47 48 47 48 47 46 46 45 47 49 52 53 53 54 53 50 49 50 50 50 51 54 55 60 61 61 60 58 57 54 54 48 48 47 44 42 46 49 48 47 46 44 42 45 42 43 41 40 42 39 40 40 39 37 38 39 39 40 44 42 38 37 36 41 43 44 43 44 43 43 43 43 42 43 43 43 43 43 43 43
50 48 48 47 48 46 46 47 46 46 45 45 47 48 48 49 50 50 52 53 52 52 50 49 49 50 51 53 59 61 61 60 59 58 57 56 54 52 50 51 45 47 50 49 46 46 47 46 45 45 43 43 44 41 37 39 39 38 41 41 41 38 43 45 44 40 40 41 43 42 42 41 42 40 43 42 43 43 42 42 43 43 42 42 42
51 49 48 49 48 45 46 45 46 47 46 45 45 46 46 48 49 49 49 51 52 52 53 51 51 51 52 52 54 58 61 61 61 59 59 57 56 55 54 54 51 50 50 49 48 46 46 48 45 45 44 42 42 43 38 37 38 38 38 42 43 43 44 46 46 44 44 45 45 42 42 41 41 41 42 43 43 43 42 42 43 43 42 42 42
52 49 49 48 48 47 47 49 48 51 51 52 53 55 51 47 48 49 48 46 49 51 52 51 51 49 50 52 52 53 62 57 52 53 54 53 55 52 53 53 53 52 51 48 48 46 47 46 46 47 44 43 43 44 42 40 39 40 43 44 44 44 44 45 44 44 41 42 42 39 36 40 36 38 35 36 37 42 42 42 43 43 41 41 41
53 52 50 51 49 50 50 51 54 57 58 55 47 42 43 52 50 48 50 50 46 48 49 50 50 49 50 52 55 55 52 52 49 47 47 48 49 55 56 52 52 51 50 50 48 46 47 45 44 44 44 44 44 46 46 45 44 44 43 45 43 43 44 45 46 45 43 43 43 41 38 39 40 39 38 38 39 42 42 39 40 39 41 41 41
57 56 55 52 52 52 53 56 56 56 53 48 41 39 39 39 53 51 50 51 50 49 49 50 48 49 50 49 54 55 55 52 52 44 43 43 43 44 44 48 50 57 50 49 48 48 45 45 45 45 44 44 45 46 46 45 47 45 43 44 44 45 43 44 42 45 45 44 43 43 42 43 43 39 38 39 43 43 41 43 39 41 40 41 41
56 58 58 57 57 57 57 55 55 54 51 41 39 40 40 39 40 52 50 50 51 51 51 50 49 49 51 52 53 55 54 60 55 53 48 43 42 42 42 42 43 44 43 56 52 48 49 46 44 44 45 44 43 45 44 45 44 46 46 46 46 45 44 44 44 43 45 46 44 43 43 44 43 41 41 39 40 44 40 40 40 39 41 41 42
56 56 56 57 56 54 52 50 49 48 46 38 38 39 39 39 40 47 49 50 49 49 50 50 51 52 52 52 53 54 52 54 49 49 53 56 43 41 42 42 42 41 40 40 39 54 52 49 47 46 45 45 44 44 46 47 48 47 47 46 47 46 45 43 43 43 47 47 45 43 42 43 43 40 40 42 42 44 40 40 40 41 41 41 41
54 54 55 55 54 52 50 48 46 44 44 39 38 38 39 38 40 43 54 54 53 51 50 51 52 51 51 50 50 51 52 53 52 52 52 52 56 54 54 53 53 51 41 40 39 39 46 51 50 48 48 49 47 47 48 50 50 48 46 46 48 47 46 45 47 48 49 47 45 44 42 41 41 40 38 39 41 42 43 41 39 40 41 41 42
49 49 50 50 51 51 49 47 45 45 43 38 37 37 38 38 39 40 58 59 55 56 56 57 56 55 55 54 52 50 51 51 52 54 52 51 52 53 53 53 53 52 55 56 54 52 52 51 51 51 51 51 51 52 53 52 54 52 50 49 50 50 49 53 51 50 48 45 47 44 41 42 41 39 39 39 41 40 40 37 39 39 40 40 41
46 46 46 46 47 48 49 47 45 42 42 37 37 37 37 38 38 55 55 56 56 55 57 58 57 57 57 57 56 55 55 54 50 46 48 56 53 53 52 51 51 51 52 53 50 52 58 59 55 54 57 60 46 59 60 57 54 55 52 52 52 52 49 48 45 45 45 45 48 42 42 41 41 39 38 38 39 38 37 40 38 40 40 41 40
42 42 44 44 44 45 46 46 45 44 42 39 37 37 37 37 46 50 52 51 52 54 55 54 55 56 57 57 57 56 57 57 47 44 43 44 55 54 53 53 52 52 50 58 44 40 40 39 40 39 39 40 41 41 42 42 52 52 52 49 48 48 47 45 46 44 44 43 44 44 43 39 41 41 38 38 38 36 36 37 38 38 40 40 40
45 43 44 45 44 44 44 47 46 44 42 39 37 37 37 37 40 49 46 48 50 50 51 52 52 52 55 51 54 53 56 56 39 43 39 49 55 56 55 55 54 54 53 55 55 53 38 38 39 39 39 39 40 40 41 41 41 44 50 48 49 47 47 47 46 44 45 43 42 44 42 40 41 39 37 36 37 37 36 33 37 37 39 39 39
41 40 39 40 41 41 42 43 45 46 44 41 37 37 37 37 41 47 44 43 46 48 47 47 49 48 52 52 49 50 51 47 38 40 39 44 56 57 56 56 55 55 56 56 57 55 53 51 51 51 49 45 49 51 51 41 40 43 51 51 49 48 47 46 46 45 44 42 43 44 40 39 40 38 36 35 33 34 37 36 36 38 38 38 38